Weather History for Childress, TX

Change the Weather History Date:

Wednesday, May 13, 2009

  Actual Average Record
Temperature  
Mean Temperature 82 °F 70 °F  
Max Temperature 100 °F 83 °F 102 °F (1945)
Min Temperature 63 °F 58 °F 40 °F (1966)
Degree Days  
Heating Degree Days 0 1  
Month to date heating degree days 51 18  
Since 1 July heating degree days 2779 3106  
Cooling Degree Days 17 6  
Month to date cooling degree days 56 67  
Year to date cooling degree days 191 158  
Growing Degree Days 32 (Base 50)    
Moisture  
Dew Point 58 °F    
Average Humidity 52    
Maximum Humidity 93    
Minimum Humidity 11    
Precipitation  
Precipitation 0.00 in 0.10 in 1.27 in (1958)
Month to date precipitation 0.64 1.09  
Year to date precipitation 5.22 6.52  
Sea Level Pressure  
Sea Level Pressure 29.62 in    
Wind  
Wind Speed 15 mph (South)    
Max Wind Speed 32 mph    
Max Gust Speed 45 mph    
Visibility 10 miles    
Events      
T = Trace of Precipitation, MM = Missing Value Source: NWS Daily Summary

Daily Weather History Graph

Daily Weather History Graph

Search for Another Location

Airport:

Trip Planner

Search our weather history database for the weather conditions in past years. The results will help you decide how hot, cold, wet, or windy it might be!

Date:

Astronomy

May. 13, 2009 Rise Set
Actual Time 6:40 AM CDT 8:35 PM CDT
Civil Twilight 6:12 AM CDT 9:03 PM CDT
Nautical Twilight 5:38 AM CDT 9:36 PM CDT
Astronomical Twilight 5:03 AM CDT 10:12 PM CDT
Moon 12:07 AM CDT (5/13) 9:58 AM CDT (5/13)
Length of Visible Light 14h 50m
Length of Day
13h 55m
Waning Gibbous, 82% of the Moon is Illuminated
May 13
Waning Gibbous
May 17
Last Quarter
May 24
New
May 30
First Quarter
Jun 7
Full

Hourly Weather History & Observations

Time (CDT) Temp. Heat Index Dew Point Humidity Pressure Visibility Wind Dir Wind Speed Gust Speed Precip Events Conditions
12:53 AM 64.9 °F - 59.0 °F 81% 29.66 in 10.0 mi SE 12.7 mph - N/A   Clear
1:53 AM 66.0 °F - 60.1 °F 81% 29.64 in 10.0 mi SE 15.0 mph - N/A   Clear
2:53 AM 66.0 °F - 61.0 °F 84% 29.63 in 10.0 mi SE 13.8 mph - N/A   Clear
3:53 AM 64.9 °F - 61.0 °F 87% 29.63 in 10.0 mi SE 12.7 mph - N/A   Clear
4:53 AM 64.0 °F - 61.0 °F 90% 29.62 in 10.0 mi SSE 9.2 mph - N/A   Clear
5:53 AM 64.0 °F - 61.0 °F 90% 29.62 in 10.0 mi SSE 11.5 mph - N/A   Clear
6:53 AM 63.0 °F - 60.1 °F 90% 29.62 in 10.0 mi SSE 8.1 mph - N/A   Clear
7:53 AM 66.0 °F - 60.1 °F 81% 29.64 in 10.0 mi SE 6.9 mph - N/A   Clear
8:53 AM 71.1 °F - 61.0 °F 70% 29.66 in 10.0 mi SSE 10.4 mph - N/A   Clear
9:53 AM 75.9 °F - 64.0 °F 67% 29.65 in 10.0 mi South 11.5 mph - N/A   Clear
10:53 AM 82.0 °F 83.8 °F 64.9 °F 56% 29.63 in 10.0 mi SSW 20.7 mph - N/A   Clear
11:53 AM 86.0 °F 86.8 °F 63.0 °F 46% 29.63 in 10.0 mi SW 23.0 mph 31.1 mph N/A   Clear
12:53 PM 90.0 °F 89.7 °F 60.1 °F 37% 29.62 in 10.0 mi SW 19.6 mph - N/A   Clear
1:53 PM 93.0 °F 91.7 °F 57.0 °F 30% 29.59 in 10.0 mi SW 12.7 mph - N/A   Clear
2:53 PM 95.0 °F 93.4 °F 55.9 °F 27% 29.58 in 10.0 mi SSW 10.4 mph - N/A   Clear
3:53 PM 97.0 °F - 52.0 °F 22% 29.56 in 10.0 mi South 12.7 mph - N/A   Clear
4:53 PM 100.0 °F - 37.9 °F 12% 29.54 in 10.0 mi SW 13.8 mph - N/A   Clear
5:53 PM 99.0 °F - 39.9 °F 13% 29.55 in 10.0 mi SSW 12.7 mph - N/A   Clear
6:53 PM 95.0 °F - 46.9 °F 19% 29.55 in 10.0 mi SSW 9.2 mph - N/A   Clear
7:53 PM 91.0 °F 91.5 °F 62.1 °F 38% 29.57 in 10.0 mi North 16.1 mph 21.9 mph N/A   Clear
8:05 PM 87.8 °F 89.4 °F 64.4 °F 46% 29.65 in 10.0 mi NNE 11.5 mph - N/A   Clear
8:53 PM 82.9 °F 82.0 °F 55.0 °F 38% 29.60 in 10.0 mi NNE 11.5 mph - N/A   Clear
9:53 PM 81.0 °F 81.1 °F 57.9 °F 45% 29.63 in 10.0 mi NE 17.3 mph 24.2 mph N/A   Clear
10:53 PM 78.1 °F - 63.0 °F 60% 29.70 in 10.0 mi NE 23.0 mph 32.2 mph N/A   Clear